Location: Bremen
(53.0793°N, 8.8017°E)
Time: 07:02:50
(UTC+01:00)

Tiros 1 - Pass Details

Date: 04 December 2021
Orbit: 629 x 664 km, 48.4° (Epoch: 25 January)

Event Time Altitude Azimuth Distance (km) Brightness Sun altitude
Rises 19:47:42 0° 233° (SW) 2,921 11.2 -31.5°
Reaches altitude 10° 19:50:09 10° 224° (SW) 2,019 10.1 -31.8°
Enters shadow 19:51:15 16° 217° (SW) 1,652 9.5 -32.0°
